Location: Fredericksburg
(30.2750°N, 98.8720°W)
Time: 14:03:42
(UTC-05:00)

Daily predictions for brighter satellites

Satellite Brightness Start Highest point End
(mag) Time Altitude Azimuth Time Altitude Azimuth Time Altitude Azimuth
COSMOS 2428 3.3 20:58:51 10° NNW 21:04:28 60° WSW 21:10:02 10° S
Helios 1B rocket 3.4 21:02:47 10° NE 21:06:19 27° E 21:09:49 10° SSE
SL-16 R/B 4.0 21:03:45 10° NNE 21:07:08 16° ENE 21:10:29 10° E
Envisat 3.7 21:06:14 10° SE 21:10:52 37° ENE 21:15:30 10° N
Cosmos 1934 Rocket 4.0 21:05:08 10° N 21:11:12 61° E 21:17:09 10° SSE
DELTA 2 R/B (1) 3.9 21:08:31 10° WNW 21:14:01 60° SSW 21:19:32 10° SE
Lacrosse 4 Rocket 3.3 21:11:12 10° SW 21:15:04 36° WNW 21:19:03 10° N
Meteor 1-29 4.2 21:12:19 10° NE 21:15:05 22° E 21:17:52 10° SSE
Cosmos 1707 4.3 21:13:54 10° SSW 21:17:33 40° W 21:21:15 10° N
Cosmos 1140 Rocket 3.4 21:13:06 10° S 21:18:16 74° ESE 21:23:24 10° NNE
Cosmos 1842 Rocket 4.1 21:17:44 10° N 21:21:51 40° E 21:25:56 10° SSE
Cosmos 2219 Rocket 2.4 21:17:54 10° NNW 21:23:34 73° WSW 21:29:09 10° SSE
Cosmos 1605 Rocket 4.3 21:17:28 10° N 21:23:35 52° E 21:29:43 10° SSE
USA 32 4.5 21:21:58 10° SSE 21:26:52 43° E 21:31:48 10° NNE
Cosmos 2333 Rocket 2.3 21:24:11 10° NNW 21:29:51 81° WSW 21:35:27 10° SSE
Skynet4D Del rocket 3.9 21:24:40 10° W 21:30:16 60° S 21:36:04 12° ESE
CZ-4B DEB 4.2 21:28:55 14° ESE 21:30:28 20° ENE 21:32:44 10° NNE
Cosmos-2242 4.1 21:32:05 10° NNW 21:36:09 45° W 21:40:15 10° SSW
Cosmos 1727 Rocket 4.0 21:30:30 10° S 21:36:44 73° E 21:43:04 10° N
Cosmos 1241 Rocket 4.5 21:31:06 10° NNW 21:37:28 89° WSW 21:43:24 11° SSE
GPS 2-05 Rocket1 3.3 21:35:49 10° SW 21:38:36 31° SSE 21:40:20 18° E
OAO 3 Rocket 4.2 21:36:21 10° W 21:40:33 34° SSW 21:43:49 15° SSE
Cosmos 1076 Rocket 4.5 21:38:27 15° SE 21:41:18 29° E 21:45:03 10° NNE
Cosmos 1867 3.5 21:37:10 10° SSW 21:42:32 68° ESE 21:47:57 10° NNE
Cosmos 614 Rocket 4.5 21:44:53 10° SSW 21:50:03 64° WNW 21:55:13 10° N
Cosmos 2297 Rocket 3.8 21:47:15 10° SW 21:52:25 37° WNW 21:57:38 10° N
Cosmos 1850 Rocket 4.0 21:49:13 10° SSW 21:54:22 88° WNW 21:59:34 10° NNE
SL-19 R/B 4.5 21:51:48 10° S 21:57:37 76° WSW 22:03:12 10° NNW
Cosmos 2221 2.9 21:55:51 10° N 22:00:03 44° E 22:02:03 26° SE
Okean 3 Rocket 3.5 21:56:51 10° S 22:01:21 78° E 22:05:50 10° N
Cosmos 2263 Rocket 4.0 22:04:26 12° E 22:04:26 12° E 22:05:44 10° ENE
YAOGAN 6 2.5 22:02:07 28° SSE 22:03:55 72° ENE 22:07:33 10° N
ERS-1 Rocket 3.4 22:01:44 24° SE 22:04:20 44° ENE 22:09:06 10° N
Cosmos 1939 Rocket 3.1 22:01:55 16° S 22:05:02 66° W 22:09:03 10° NNW
USA 234 3.2 21:58:33 10° NE 22:05:06 75° SE 22:11:37 10° SW
ATLAS 5 CENTAUR R/B 3.3 22:05:03 10° SW 22:09:17 37° NW 22:13:49 10° NNE
Cosmos 1340 Rocket 4.1 22:07:38 10° SSW 22:11:24 40° W 22:15:14 10° N
H-2A R/B 3.6 22:10:15 18° E 22:11:44 20° ENE 22:15:32 10° NNE
Cosmos 1726 4.2 22:11:20 10° NE 22:12:45 14° ENE 22:12:45 14° ENE
Sakura Rocket 4.1 22:05:28 10° WSW 22:14:04 76° S 22:18:33 20° E
Cosmos 1766 Rocket 3.7 22:15:19 35° SE 22:16:41 50° E 22:20:52 10° NNE
USA 245 4.4 22:24:12 24° ENE 22:24:12 24° ENE 22:26:54 10° NNE
Cosmos 1818 3.8 22:18:43 10° NNW 22:24:04 55° ENE 22:26:01 36° ESE
SEDSat Delta rocket 3.9 22:21:47 10° W 22:25:38 30° SSW 22:26:06 29° SSW
SL-8 R/B 4.4 22:21:23 10° WNW 22:25:54 43° SW 22:27:31 31° S
Palapa 6 Rocket 3.9 22:21:46 10° WSW 22:26:17 31° S 22:26:27 31° S
Cosmos 2237 Rocket 3.5 22:22:06 10° NW 22:27:07 34° WSW 22:31:36 13° SSW
Resurs 01 Rocket 4.4 22:25:48 10° WSW 22:27:22 12° W 22:28:57 10° WNW
SL-08 RB Rocket 4.5 22:28:02 32° E 22:28:37 34° ENE 22:32:44 10° N
Cosmos 1674 3.4 22:30:15 22° SSW 22:32:28 51° W 22:36:09 10° N
NOSS 3-4 (A) 4.1 22:26:39 10° NW 22:33:49 65° WSW 22:38:13 27° S
NOSS 3-4 (C) 4.1 22:26:45 10° NW 22:33:55 66° WSW 22:38:17 27° S
Delta 2 Rocket 4.0 22:31:21 10° WSW 22:37:04 85° SSE 22:41:58 15° ENE
STPSAT 2 (USA 217) 4.4 22:39:50 46° S 22:41:09 79° ESE 22:45:42 10° NNE
Cosmos 1908 3.4 22:39:01 10° NNW 22:42:51 67° W 22:43:23 58° SW
ARGOS 3.1 22:43:01 47° SE 22:44:30 69° ENE 22:49:53 10° N
MetOp-A 4.0 22:42:42 42° SSE 22:44:34 89° WSW 22:49:57 10° NNW
KORONAS-FOTON 4.4 22:45:32 39° SW 22:46:32 53° W 22:50:15 10° N
Atlas Centaur 2 1.8 22:43:34 10° W 22:46:12 42° WSW 22:46:12 42° WSW
Cosmos 1459 Rocket 4.0 22:44:09 10° N 22:50:25 77° W 22:53:12 35° S
SL-16 R/B 2.6 22:46:02 10° NNW 22:51:33 56° WSW 22:53:38 36° SSW
Cosmos 2100 Rocket 4.3 22:47:15 10° NNW 22:53:30 67° W 22:56:44 30° SSW
DMSP B5D2-2 4.3 22:48:45 10° NNE 22:53:40 50° E 22:53:40 50° E
Cosmos 2061 Rocket 4.1 22:51:22 10° N 22:57:44 75° W 23:00:27 37° S
Cosmos 2123 Rocket 3.8 22:55:40 43° S 22:57:52 84° E 23:04:05 10° N
Milstar 3 Cent rocket 3.9 22:51:39 10° W 22:59:26 61° SSW 23:06:12 34° SE
Cosmos 2208 Rocket 4.4 22:55:54 10° NNW 23:01:09 60° WSW 23:02:30 46° SSW
Cosmos 1486 Rocket 3.8 23:00:59 69° SE 23:01:21 73° ESE 23:06:37 10° NNE
Nimbus 7 Rocket 4.4 22:57:16 10° NNE 23:03:17 84° WNW 23:05:47 37° SSW
Cosmos 2173 Rocket 4.4 22:58:50 10° NNW 23:04:52 58° W 23:07:38 32° SSW
SPOT 1/Viking Rocket 3.4 23:06:11 72° ESE 23:06:28 74° ENE 23:11:36 10° N
Cosmos 220 Rocket 4.2 23:06:50 64° W 23:07:07 67° WNW 23:11:30 10° N
Cosmos 1242 Rocket 4.1 23:05:45 10° NNW 23:09:02 30° W 23:09:02 30° W
Meteor 1-11 4.1 23:14:28 70° ESE 23:14:43 71° E 23:20:30 10° NNE
Cosmos 1763 Rocket 4.2 23:10:48 10° N 23:15:02 39° NE 23:15:02 39° NE
Cosmos 2058 4.4 23:18:06 30° NNE 23:18:06 30° NNE 23:20:22 10° NNE
SPOT 5 3.2 23:16:55 56° WSW 23:17:13 57° W 23:22:06 10° NNW
Cosmos 371 Rocket 3.7 23:20:28 10° N 23:24:24 54° NNE 23:24:24 54° NNE
Lacrosse 5 2.6 23:21:22 10° NNW 23:25:53 45° NE 23:25:53 45° NE
Cosmos 1725 Rocket 3.9 23:21:15 10° N 23:27:29 80° W 23:28:17 68° SSW
RESURS DK-1 3.7 23:31:20 10° NNW 23:34:01 39° NNW 23:34:01 39° NNW
Meteor 1-27 4.4 23:30:12 10° N 23:35:26 63° NE 23:35:26 63° NE
Cosmos 2151 4.2 23:39:05 40° NNW 23:39:05 40° NNW 23:41:59 10° N
CZ-4C R/B 4.3 23:41:35 14° NE 23:41:35 14° NE 23:42:31 10° NE
Landsat 7 4.5 23:43:05 53° NW 23:43:05 53° NW 23:46:52 10° NNW
Cosmos 2263 Rocket 2.6 23:46:03 55° W 23:46:28 57° WNW 23:51:57 10° N
H-2A R/B 3.0 23:50:53 39° W 23:50:53 39° W 23:55:47 10° NNW
